DW4408 Weather Reports


time (UTC)temp
C
wind
direction
speed
KPH
gust
KPH
rain 1hr
cm
rain 24hr
cm
rain mn
cm
humidity
%
barometer
mb
20260507154601 13 321 3.2 6.4 0.00 0.00 0.00 15 1012.2
20260507153102 13 333 1.6 8.0 0.00 0.00 0.00 16 1012.5
20260507151551 12 161 1.6 6.4 0.00 0.00 0.00 18 1012.3
20260507150047 11 355 0.0 4.8 0.00 0.00 0.00 19 1012.5
20260507144542 10 331 1.6 3.2 0.00 0.00 0.00 21 1012.7
20260507143040 8 318 1.6 6.4 0.00 0.00 0.00 25 1012.7
20260507141537 5 319 0.0 3.2 0.00 0.00 0.00 34 1012.7
20260507140028 3 245 0.0 0.0 0.00 0.00 0.00 49 1012.7
20260507134525 1 245 0.0 0.0 0.00 0.00 0.00 51 1012.6
20260507133023 0 245 0.0 0.0 0.00 0.00 0.00 53 1012.5
20260507131521 -1 245 0.0 0.0 0.00 0.00 0.00 53 1012.5
20260507130026 -1 245 0.0 0.0 0.00 0.00 0.00 52 1012.3
20260507124519 -1 245 0.0 0.0 0.00 0.00 0.00 51 1012.2
20260507123014 -2 245 0.0 0.0 0.00 0.00 0.00 50 1012.1
20260507121512 -2 245 0.0 0.0 0.00 0.00 0.00 49 1012.0
20260507120011 -2 245 0.0 0.0 0.00 0.00 0.00 48 1011.9
20260507114510 -2 245 0.0 0.0 0.00 0.00 0.00 48 1011.7
20260507113013 -2 245 0.0 0.0 0.00 0.00 0.00 47 1011.5
20260507111510 -2 245 0.0 0.0 0.00 0.00 0.00 48 1011.5
20260507110019 -1 245 0.0 0.0 0.00 0.00 0.00 47 1011.4
20260507104504 -1 245 0.0 0.0 0.00 0.00 0.00 47 1011.2
20260507103002 -1 245 0.0 0.0 0.00 0.00 0.00 46 1011.0
20260507101501 -1 245 0.0 0.0 0.00 0.00 0.00 45 1011.1
20260507100100 -1 245 0.0 0.0 0.00 0.00 0.00 45 1011.1
20260507094559 -1 245 0.0 0.0 0.00 0.00 0.00 44 1011.1
20260507093057 0 245 0.0 0.0 0.00 0.00 0.00 44 1011.0
20260507091556 0 245 0.0 0.0 0.00 0.00 0.00 44 1011.0
20260507090055 0 245 0.0 0.0 0.00 0.00 0.00 42 1010.8
20260507084552 0 245 0.0 0.0 0.00 0.00 0.00 42 1010.9
20260507083049 0 245 0.0 0.0 0.00 0.00 0.00 41 1010.7
20260507081547 0 245 0.0 0.0 0.00 0.00 0.00 40 1010.7
20260507080046 1 247 0.0 1.6 0.00 0.00 0.00 39 1011.0
20260507074559 0 205 0.0 0.0 0.00 0.00 0.00 40 1011.2
20260507073045 1 195 0.0 0.0 0.00 0.00 0.00 38 1011.1
20260507071540 1 192 0.0 1.6 0.00 0.00 0.00 36 1011.0
20260507070043 2 156 0.0 1.6 0.00 0.00 0.00 35 1011.2
20260507064535 1 144 0.0 3.2 0.00 0.00 0.00 34 1011.2
20260507063046 1 195 0.0 0.0 0.00 0.00 0.00 39 1011.4
20260507061533 1 195 0.0 0.0 0.00 0.00 0.00 38 1011.6
20260507060039 1 195 0.0 0.0 0.00 0.00 0.00 37 1011.7
20260507054526 2 195 0.0 0.0 0.00 0.00 0.00 37 1011.8
20260507053026 2 163 0.0 0.0 0.00 0.00 0.00 35 1011.9
20260507051525 3 165 0.0 1.6 0.00 0.00 0.00 34 1012.0
20260507050032 3 165 0.0 1.6 0.00 0.00 0.00 33 1012.1
20260507044522 3 148 0.0 0.0 0.00 0.00 0.00 33 1012.2
20260507043021 4 148 0.0 0.0 0.00 0.00 0.00 31 1012.3
20260507041519 5 148 0.0 0.0 0.00 0.00 0.00 29 1012.6
20260507040019 5 148 0.0 1.6 0.00 0.00 0.00 28 1012.7
20260507034529 5 148 0.0 3.2 0.00 0.00 0.00 28 1012.8
20260507033015 5 149 0.0 3.2 0.00 0.00 0.00 28 1013.1
20260507031514 6 155 0.0 1.6 0.00 0.00 0.00 28 1013.3
20260507030014 6 155 0.0 3.2 0.00 0.00 0.00 26 1013.4
20260507024516 7 155 0.0 0.0 0.00 0.00 0.00 27 1013.3
20260507023012 7 155 0.0 0.0 0.00 0.00 0.00 24 1013.5
20260507021510 8 155 0.0 0.0 0.00 0.00 0.00 22 1013.5
20260507020025 9 155 0.0 0.0 0.00 0.00 0.00 20 1013.5
20260507014509 10 155 0.0 0.0 0.00 0.00 0.00 18 1013.6
20260507013012 11 155 0.0 0.0 0.00 0.00 0.00 16 1013.7
20260507011508 11 154 0.0 1.6 0.00 0.00 0.00 16 1013.8
20260507010006 11 169 0.0 3.2 0.00 0.00 0.00 15 1013.8
20260507004504 11 334 0.0 3.2 0.00 0.00 0.00 14 1013.7
20260507003003 12 166 0.0 4.8 0.00 0.00 0.00 14 1013.9
20260507001501 12 81 0.0 3.2 0.00 0.00 0.00 13 1014.1
20260507000059 12 217 0.0 1.6 0.00 0.00 0.00 14 1014.4
20260506234558 12 129 0.0 3.2 0.00 0.00 0.00 14 1014.6
20260506233107 12 182 0.0 8.0 0.00 0.00 0.00 13 1014.7
20260506231605 12 222 0.0 4.8 0.00 0.00 0.00 13 1014.9
20260506224554 13 317 1.6 8.0 0.00 0.00 0.00 12 1015.0
20260506223052 13 257 0.0 11.3 0.00 0.00 0.00 13 1015.0
20260506221557 12 309 0.0 4.8 0.00 0.00 0.00 14 1015.3
20260506220049 12 128 0.0 3.2 0.00 0.00 0.00 13 1015.8
20260506214551 13 331 0.0 4.8 0.00 0.00 0.00 12 1015.9
20260506213045 13 307 1.6 4.8 0.00 0.00 0.00 12 1016.2
20260506211544 13 159 1.6 6.4 0.00 0.00 0.00 12 1016.6
20260506210040 13 165 1.6 6.4 0.00 0.00 0.00 13 1016.9
20260506204538 13 128 1.6 8.0 0.00 0.00 0.00 12 1017.2
20260506203034 12 147 0.0 4.8 0.00 0.00 0.00 13 1017.2
20260506201535 12 342 1.6 4.8 0.00 0.00 0.00 13 1017.5
20260506200039 12 166 0.0 6.4 0.00 0.00 0.00 14 1017.7
20260506194529 12 153 1.6 6.4 0.00 0.00 0.00 14 1017.8
20260506193029 12 349 1.6 9.7 0.00 0.00 0.00 13 1017.9
20260506191526 12 319 0.0 9.7 0.00 0.00 0.00 15 1018.2
20260506190024 11 261 1.6 8.0 0.00 0.00 0.00 15 1018.3
20260506184520 11 288 0.0 6.4 0.00 0.00 0.00 14 1018.7
20260506183018 11 312 3.2 6.4 0.00 0.00 0.00 14 1018.8
20260506181518 11 328 1.6 8.0 0.00 0.00 0.00 15 1019.2
20260506180017 11 162 1.6 9.7 0.00 0.00 0.00 14 1019.6
20260506174510 11 169 1.6 6.4 0.00 0.00 0.00 16 1019.8
20260506173005 10 84 1.6 4.8 0.00 0.00 0.00 15 1019.9
20260506171502 10 334 3.2 9.7 0.00 0.00 0.00 17 1020.2
20260506170103 9 315 3.2 11.3 0.00 0.00 0.00 16 1020.3
20260506164613 8 253 3.2 9.7 0.00 0.00 0.00 17 1020.5
20260506163058 8 212 1.6 6.4 0.00 0.00 0.00 18 1020.6
20260506161550 7 225 1.6 8.0 0.00 0.00 0.00 19 1020.8
20260506160049 7 313 1.6 6.4 0.00 0.00 0.00 18 1020.8